GW6175 Weather Reports


Display with metric or nautical units.
time (UTC)temp
F
wind
direction
speed
MPH
gust
MPH
rain 1hr
in
rain 24hr
in
rain mn
in
humidity
%
barometer
mb
20260506051016 55 0.0 0.0 0.00 0.00 0.00 51 871.8
20260506045017 57 0.0 0.0 0.00 0.00 0.00 47 871.6
20260506044016 58 0.0 0.0 0.00 0.00 0.00 46 871.4
20260506043016 59 0.0 0.0 0.00 0.00 0.00 45 871.3
20260506042016 60 0.0 0.0 0.00 0.00 0.00 43 871.1
20260506041036 60 0.0 0.0 0.00 0.00 0.00 43 870.9
20260506040016 60 0.0 0.0 0.00 0.00 0.00 44 870.7
20260506035036 60 0.0 0.0 0.00 0.00 0.00 45 870.6
20260506034017 60 0.0 0.0 0.00 0.00 0.00 44 870.5
20260506033037 60 0.0 0.0 0.00 0.00 0.00 45 870.3
20260506032017 60 0.0 0.0 0.00 0.00 0.00 44 870.2
20260506031015 61 0.0 0.0 0.00 0.00 0.00 44 870.3
20260506030016 61 0.0 0.0 0.00 0.00 0.00 43 870.1
20260506025035 62 0.0 0.0 0.00 0.00 0.00 43 870.0
20260506024016 62 0.0 0.0 0.00 0.00 0.00 42 869.9
20260506023035 63 0.0 0.0 0.00 0.00 0.00 42 869.8
20260506022015 63 0.0 0.0 0.00 0.00 0.00 41 869.8
20260506021015 64 0.0 0.0 0.00 0.00 0.00 40 869.7
20260506020015 65 0.0 0.0 0.00 0.00 0.00 38 869.6
20260506015017 65 0.0 0.0 0.00 0.00 0.00 37 869.6
20260506014017 66 0.0 0.0 0.00 0.00 0.00 36 869.7
20260506013018 67 0.0 0.0 0.00 0.00 0.00 35 869.4
20260506012019 68 0.0 0.0 0.00 0.00 0.00 34 869.4
20260506011017 68 0.0 0.0 0.00 0.00 0.00 33 869.5
20260506010017 69 0.0 0.0 0.00 0.00 0.00 32 869.2
20260506005019 69 0.0 0.0 0.00 0.00 0.00 31 869.2
20260506004039 68 0.0 0.0 0.00 0.00 0.00 33 869.2
20260506003019 68 0.0 0.0 0.00 0.00 0.00 32 869.2
20260506002018 70 0.0 0.0 0.00 0.00 0.00 31 868.9
20260506001017 71 0.0 0.0 0.00 0.00 0.00 27 868.7
20260506000057 71 0.0 0.0 0.00 0.00 0.00 26 868.6
20260505235015 72 0.0 0.0 0.00 0.00 0.00 24 868.6
20260505234016 72 0.0 0.0 0.00 0.00 0.00 25 868.4
20260505233036 74 0.0 0.0 0.00 0.00 0.00 25 868.4
20260505232036 74 0.0 0.0 0.00 0.00 0.00 25 868.0
20260505231015 74 0.0 0.0 0.00 0.00 0.00 24 868.1
20260505230039 73 0.0 0.0 0.00 0.00 0.00 24 868.2
20260505225017 73 0.0 0.0 0.00 0.00 0.00 24 868.1
20260505224017 74 0.0 0.0 0.00 0.00 0.00 23 868.2
20260505223018 75 0.0 0.0 0.00 0.00 0.00 23 868.4
20260505222017 74 0.0 0.0 0.00 0.00 0.00 24 868.3
20260505221017 74 0.0 0.0 0.00 0.00 0.00 23 868.3
20260505220017 74 0.0 0.0 0.00 0.00 0.00 24 868.4
20260505215017 74 0.0 0.0 0.00 0.00 0.00 26 868.5
20260505214017 73 0.0 0.0 0.00 0.00 0.00 26 868.5
20260505213017 73 0.0 0.0 0.00 0.00 0.00 26 868.4
20260505212017 75 0.0 0.0 0.00 0.00 0.00 25 868.8
20260505211017 74 0.0 0.0 0.00 0.00 0.00 26 868.9
20260505210017 74 0.0 0.0 0.00 0.00 0.00 27 869.2
20260505205017 74 0.0 0.0 0.00 0.00 0.00 27 869.4
20260505204017 73 0.0 0.0 0.00 0.00 0.00 29 869.4
20260505203019 73 0.0 0.0 0.00 0.00 0.00 29 869.7
20260505202017 73 0.0 0.0 0.00 0.00 0.00 30 869.7
20260505201017 73 0.0 0.0 0.00 0.00 0.00 30 869.6
20260505200017 72 0.0 0.0 0.00 0.00 0.00 33 869.8
20260505195017 72 0.0 0.0 0.00 0.00 0.00 31 869.9
20260505194019 72 0.0 0.0 0.00 0.00 0.00 34 869.9
20260505193017 71 0.0 0.0 0.00 0.00 0.00 35 870.4
20260505192017 70 0.0 0.0 0.00 0.00 0.00 36 870.4
20260505191017 69 0.0 0.0 0.00 0.00 0.00 37 870.3
20260505190058 69 0.0 0.0 0.00 0.00 0.00 38 870.6
20260505185017 69 0.0 0.0 0.00 0.00 0.00 39 870.6
20260505184016 68 0.0 0.0 0.00 0.00 0.00 41 870.8
20260505183016 68 0.0 0.0 0.00 0.00 0.00 41 870.8
20260505182016 67 0.0 0.0 0.00 0.00 0.00 42 870.9
20260505181038 68 0.0 0.0 0.00 0.00 0.00 41 870.9
20260505180017 68 0.0 0.0 0.00 0.00 0.00 41 871.0
20260505175016 68 0.0 0.0 0.00 0.00 0.00 41 871.0
20260505174016 67 0.0 0.0 0.00 0.00 0.00 43 871.2
20260505173016 66 0.0 0.0 0.00 0.00 0.00 43 871.2
20260505172016 66 0.0 0.0 0.00 0.00 0.00 42 871.3
20260505171016 67 0.0 0.0 0.00 0.00 0.00 40 871.3
20260505170016 66 0.0 0.0 0.00 0.00 0.00 42 871.2
20260505165016 65 0.0 0.0 0.00 0.00 0.00 43 871.5
20260505164016 63 0.0 0.0 0.00 0.00 0.00 44 871.3
20260505163016 62 0.0 0.0 0.00 0.00 0.00 46 871.3
20260505162016 62 0.0 0.0 0.00 0.00 0.00 46 871.6
20260505161016 62 0.0 0.0 0.00 0.00 0.00 45 871.5
20260505153016 62 0.0 0.0 0.00 0.00 0.00 46 871.2
20260505152017 61 0.0 0.0 0.00 0.00 0.00 47 871.2
20260505151016 61 0.0 0.0 0.00 0.00 0.00 47 871.4
20260505125015 59 0.0 0.0 0.00 0.00 0.00 48 871.7
20260505124016 60 0.0 0.0 0.00 0.00 0.00 47 871.6
20260505123015 60 0.0 0.0 0.00 0.00 0.00 47 871.5
20260505122015 60 0.0 0.0 0.00 0.00 0.00 47 871.5
20260505121015 60 0.0 0.0 0.00 0.00 0.00 46 871.4
20260505120017 61 0.0 0.0 0.00 0.00 0.00 44 871.2
20260505115017 61 0.0 0.0 0.00 0.00 0.00 44 871.2
20260505114039 61 0.0 0.0 0.00 0.00 0.00 45 871.3
20260505113017 62 0.0 0.0 0.00 0.00 0.00 43 871.2
20260505112017 61 0.0 0.0 0.00 0.00 0.00 44 871.2
20260505111017 60 0.0 0.0 0.00 0.00 0.00 46 871.3
20260505102037 61 0.0 0.0 0.00 0.00 0.00 46 871.5
20260505101017 61 0.0 0.0 0.00 0.00 0.00 46 871.5
20260505100017 61 0.0 0.0 0.00 0.00 0.00 46 871.4
20260505095017 62 0.0 0.0 0.00 0.00 0.00 45 871.5
20260505094017 62 0.0 0.0 0.00 0.00 0.00 45 871.3
20260505093017 62 0.0 0.0 0.00 0.00 0.00 45 871.3
20260505092017 62 0.0 0.0 0.00 0.00 0.00 44 871.5
20260505091017 62 0.0 0.0 0.00 0.00 0.00 44 871.5
20260505090037 62 0.0 0.0 0.00 0.00 0.00 45 871.6
20260505085019 63 0.0 0.0 0.00 0.00 0.00 44 871.9
20260505084017 63 0.0 0.0 0.00 0.00 0.00 44 871.9
20260505083017 63 0.0 0.0 0.00 0.00 0.00 43 871.7
20260505082017 64 0.0 0.0 0.00 0.00 0.00 42 871.8
20260505081016 64 0.0 0.0 0.00 0.00 0.00 42 871.9
20260505080017 64 0.0 0.0 0.00 0.00 0.00 41 872.0
20260505075037 64 0.0 0.0 0.00 0.00 0.00 41 871.9
20260505074036 64 0.0 0.0 0.00 0.00 0.00 41 871.7
20260505073016 64 0.0 0.0 0.00 0.00 0.00 41 871.6
20260505072016 64 0.0 0.0 0.00 0.00 0.00 41 871.5
20260505071017 64 0.0 0.0 0.00 0.00 0.00 41 871.8
20260505070017 64 0.0 0.0 0.00 0.00 0.00 40 871.6
20260505065016 65 0.0 0.0 0.00 0.00 0.00 40 871.2
20260505064016 65 0.0 0.0 0.00 0.00 0.00 39 871.0
20260505063016 65 0.0 0.0 0.00 0.00 0.00 39 870.7
20260505062016 65 0.0 0.0 0.00 0.00 0.00 38 870.8
20260505061016 65 0.0 0.0 0.00 0.00 0.00 38 870.8
20260505060016 66 0.0 0.0 0.00 0.00 0.00 37 871.1